�������l�o���
Date,Time,MP-1(��Sv/h),MP-2(��Sv/h),MP-3(��Sv/h),MP-4(��Sv/h),MP-5(��Sv/h),MP-6(��Sv/h),MP-7(��Sv/h),����,����(m/s),���J
2018/06/04,00:00,0.316,0.197,0.319,0.309,0.303,0.159,0.097,��쐼,5.1,��
2018/06/04,00:10,0.315,0.196,0.322,0.306,0.298,0.157,0.097,��쐼,5.4,��
2018/06/04,00:20,0.314,0.196,0.319,0.309,0.301,0.158,0.097,��쐼,5.2,��
2018/06/04,00:30,0.314,0.195,0.321,0.307,0.298,0.159,0.097,��쐼,4.3,��
2018/06/04,00:40,0.316,0.195,0.320,0.309,0.301,0.158,0.098,��쐼,3.3,��
2018/06/04,00:50,0.315,0.198,0.321,0.305,0.298,0.159,0.097,��쐼,2.5,��
2018/06/04,01:00,0.317,0.196,0.319,0.309,0.301,0.158,0.097,��쐼,2.8,��
2018/06/04,01:10,0.315,0.197,0.320,0.306,0.300,0.158,0.096,��쐼,2.3,��
2018/06/04,01:20,0.316,0.197,0.320,0.309,0.300,0.158,0.097,��쐼,2.9,��
2018/06/04,01:30,0.314,0.196,0.321,0.306,0.298,0.158,0.098,��쐼,2.7,��
2018/06/04,01:40,0.317,0.196,0.320,0.310,0.300,0.159,0.097,�쐼,2.2,��
2018/06/04,01:50,0.315,0.197,0.320,0.306,0.300,0.158,0.097,�쐼,1.7,��
2018/06/04,02:00,0.317,0.197,0.319,0.310,0.300,0.158,0.097,��쐼,1.8,��
2018/06/04,02:10,0.314,0.196,0.320,0.307,0.298,0.158,0.097,��쐼,2.1,��
2018/06/04,02:20,0.317,0.196,0.321,0.308,0.302,0.158,0.097,��,2.5,��
2018/06/04,02:30,0.315,0.197,0.320,0.307,0.299,0.158,0.096,��쐼,2.7,��
2018/06/04,02:40,0.318,0.196,0.320,0.308,0.302,0.159,0.097,�쐼,2.2,��
2018/06/04,02:50,0.315,0.197,0.320,0.307,0.299,0.158,0.097,��쐼,2.8,��
2018/06/04,03:00,0.316,0.195,0.321,0.308,0.300,0.159,0.097,��쐼,2.3,��
2018/06/04,03:10,0.315,0.196,0.320,0.308,0.300,0.157,0.097,��쐼,3.5,��
2018/06/04,03:20,0.317,0.196,0.322,0.308,0.301,0.158,0.097,��쐼,1.6,��
2018/06/04,03:30,0.316,0.195,0.320,0.308,0.299,0.157,0.098,�쐼,0.9,��
2018/06/04,03:40,0.315,0.198,0.319,0.305,0.301,0.159,0.097,���쐼,0.8,��
2018/06/04,03:50,0.316,0.196,0.322,0.310,0.299,0.157,0.097,�k�k��,0.8,��
2018/06/04,04:00,0.316,0.197,0.321,0.307,0.302,0.158,0.097,�k,2.1,��
2018/06/04,04:10,0.317,0.196,0.321,0.309,0.300,0.159,0.097,�k�k��,2.7,��
2018/06/04,04:20,0.315,0.197,0.320,0.307,0.301,0.159,0.098,�k,3.4,��
2018/06/04,04:30,0.318,0.197,0.322,0.308,0.301,0.158,0.097,�k�k��,2.9,��
2018/06/04,04:40,0.316,0.196,0.320,0.308,0.302,0.158,0.098,�k,2.6,��
2018/06/04,04:50,0.317,0.197,0.321,0.306,0.299,0.158,0.098,�k�k��,3.8,��
2018/06/04,05:00,0.316,0.196,0.321,0.310,0.301,0.159,0.097,�k�k��,3.0,��
2018/06/04,05:10,0.316,0.197,0.321,0.308,0.299,0.159,0.099,�k�k��,3.0,��
2018/06/04,05:20,0.316,0.197,0.320,0.310,0.302,0.159,0.097,�k�k��,4.1,��
2018/06/04,05:30,0.316,0.197,0.320,0.307,0.300,0.159,0.098,�k�k��,3.5,��
2018/06/04,05:40,0.317,0.197,0.320,0.309,0.300,0.159,0.097,�k�k��,3.5,��
2018/06/04,05:50,0.315,0.196,0.319,0.307,0.299,0.158,0.098,�k,2.2,��
2018/06/04,06:00,0.317,0.199,0.322,0.308,0.301,0.159,0.097,�k,0.9,��
2018/06/04,06:10,0.315,0.196,0.318,0.308,0.298,0.159,0.098,�k,1.4,��
2018/06/04,06:20,0.316,0.196,0.321,0.308,0.302,0.159,0.098,�k,1.7,��
2018/06/04,06:30,0.317,0.197,0.319,0.307,0.301,0.159,0.098,�k,2.5,��
2018/06/04,06:40,0.319,0.196,0.321,0.307,0.299,0.159,0.098,�k,2.4,��
2018/06/04,06:50,0.316,0.198,0.320,0.308,0.301,0.159,0.098,�k,1.9,��
2018/06/04,07:00,0.317,0.196,0.320,0.308,0.298,0.160,0.098,�k,3.5,��
2018/06/04,07:10,0.316,0.198,0.320,0.306,0.302,0.159,0.099,�k�k��,2.8,��
2018/06/04,07:20,0.316,0.197,0.318,0.309,0.301,0.159,0.097,�k�k��,2.6,��
2018/06/04,07:30,0.317,0.196,0.321,0.308,0.299,0.159,0.097,�k,2.8,��
2018/06/04,07:40,0.313,0.197,0.320,0.304,0.303,0.159,0.098,�k,2.7,��
2018/06/04,07:50,0.318,0.197,0.318,0.309,0.300,0.159,0.097,�k�k��,4.0,��
2018/06/04,08:00,0.315,0.196,0.320,0.307,0.297,0.159,0.096,�k�k��,3.5,��
2018/06/04,08:10,0.313,0.194,0.319,0.304,0.302,0.157,0.097,�k�k��,3.9,��
2018/06/04,08:20,0.316,0.198,0.317,0.304,0.301,0.158,0.098,�k�k��,4.2,��
2018/06/04,08:30,0.315,0.196,0.318,0.308,0.296,0.158,0.097,�k�k��,4.0,��
2018/06/04,08:40,0.313,0.195,0.321,0.307,0.301,0.157,0.096,�k�k��,3.5,��
2018/06/04,08:50,0.317,0.196,0.318,0.306,0.303,0.158,0.096,�k��,2.4,��
2018/06/04,09:00,0.315,0.197,0.315,0.305,0.299,0.158,0.098,�k�k��,2.7,��
2018/06/04,09:10,0.312,0.193,0.320,0.304,0.297,0.158,0.096,�k��,3.4,��
2018/06/04,09:20,0.316,0.194,0.321,0.303,0.297,0.158,0.096,�k��,2.7,��
2018/06/04,09:30,0.317,0.196,0.318,0.307,0.301,0.158,0.096,���k��,1.4,��
2018/06/04,09:40,0.314,0.196,0.319,0.309,0.300,0.159,0.097,���쓌,1.0,��
2018/06/04,09:50,0.313,0.196,0.321,0.308,0.298,0.158,0.096,��,2.3,��
2018/06/04,10:00,0.318,0.194,0.318,0.306,0.298,0.158,0.096,��쓌,2.9,��
2018/06/04,10:10,0.315,0.195,0.318,0.306,0.299,0.158,0.096,��쓌,2.6,��
2018/06/04,10:20,0.314,0.197,0.320,0.305,0.301,0.158,0.096,��쓌,2.7,��
2018/06/04,10:30,0.312,0.198,0.320,0.305,0.300,0.158,0.096,��쓌,3.0,��
2018/06/04,10:40,0.310,0.195,0.317,0.304,0.300,0.158,0.097,��쓌,3.3,��
2018/06/04,10:50,0.316,0.195,0.316,0.305,0.297,0.158,0.097,��쓌,2.2,��
2018/06/04,11:00,0.317,0.193,0.317,0.304,0.296,0.158,0.096,��,2.8,��
2018/06/04,11:10,0.316,0.195,0.317,0.305,0.297,0.159,0.095,-,CALM,��
2018/06/04,11:20,0.313,0.194,0.318,0.306,0.302,0.157,0.097,��,0.8,��
2018/06/04,11:30,0.309,0.195,0.315,0.304,0.301,0.158,0.096,��쓌,2.2,��
2018/06/04,11:40,0.306,0.196,0.316,0.305,0.300,0.157,0.097,-,CALM,��
2018/06/04,11:50,0.312,0.196,0.317,0.306,0.299,0.158,0.096,��,0.9,��
2018/06/04,12:00,0.314,0.196,0.317,0.305,0.297,0.158,0.096,��,0.9,��
2018/06/04,12:10,0.313,0.195,0.318,0.306,0.298,0.158,0.096,-,CALM,��
2018/06/04,12:20,0.314,0.196,0.318,0.306,0.298,0.159,0.096,-,CALM,��
2018/06/04,12:30,0.314,0.195,0.319,0.306,0.297,0.159,0.095,��,0.9,��
2018/06/04,12:40,0.320,0.195,0.317,0.306,0.297,0.157,0.096,�쐼,0.7,��
2018/06/04,12:50,0.319,0.197,0.318,0.306,0.297,0.159,0.096,-,CALM,��
2018/06/04,13:00,0.317,0.198,0.319,0.306,0.297,0.158,0.096,-,CALM,��
2018/06/04,13:10,0.316,0.196,0.318,0.306,0.298,0.156,0.097,-,CALM,��
2018/06/04,13:20,0.315,0.195,0.318,0.306,0.297,0.157,0.097,-,CALM,��
2018/06/04,13:30,0.315,0.196,0.320,0.306,0.298,0.157,0.097,��쓌,0.7,��
2018/06/04,13:40,0.313,0.196,0.318,0.306,0.295,0.157,0.096,�쓌,0.7,��
2018/06/04,13:50,0.314,0.195,0.320,0.307,0.295,0.157,0.096,�쓌,1.3,��
2018/06/04,14:00,0.314,0.195,0.318,0.305,0.300,0.158,0.096,�쓌,0.8,��
2018/06/04,14:10,0.315,0.194,0.320,0.307,0.299,0.158,0.095,-,CALM,��
2018/06/04,14:20,0.314,0.196,0.319,0.306,0.299,0.159,0.096,�쓌,0.7,��
2018/06/04,14:30,0.314,0.195,0.319,0.305,0.297,0.160,0.096,�k��,0.6,��
2018/06/04,14:40,0.315,0.195,0.319,0.305,0.298,0.159,0.095,-,CALM,��
2018/06/04,14:50,0.316,0.195,0.321,0.306,0.299,0.159,0.096,-,CALM,��
2018/06/04,15:00,0.315,0.195,0.319,0.312,0.298,0.158,0.096,-,CALM,��
2018/06/04,15:10,0.316,0.194,0.320,0.308,0.300,0.158,0.096,-,CALM,��
2018/06/04,15:20,0.316,0.196,0.319,0.306,0.299,0.159,0.097,��,2.7,��
2018/06/04,15:30,0.315,0.198,0.320,0.311,0.300,0.158,0.097,-,CALM,��
2018/06/04,15:40,0.315,0.197,0.318,0.311,0.301,0.158,0.097,-,CALM,��
2018/06/04,15:50,0.315,0.196,0.318,0.307,0.298,0.158,0.096,-,CALM,��
2018/06/04,16:00,0.315,0.196,0.321,0.309,0.299,0.157,0.097,-,CALM,��
2018/06/04,16:10,0.314,0.198,0.323,0.310,0.299,0.159,0.097,-,CALM,��
2018/06/04,16:20,0.314,0.197,0.320,0.308,0.299,0.158,0.096,-,CALM,��
2018/06/04,16:30,0.317,0.197,0.322,0.310,0.298,0.159,0.097,-,CALM,��
2018/06/04,16:40,0.314,0.197,0.325,0.309,0.297,0.158,0.097,-,CALM,��
2018/06/04,16:50,0.314,0.197,0.321,0.308,0.298,0.158,0.097,-,CALM,��
2018/06/04,17:00,0.315,0.198,0.323,0.311,0.298,0.159,0.097,-,CALM,��
2018/06/04,17:10,0.317,0.197,0.322,0.307,0.298,0.158,0.096,��쓌,1.8,��
2018/06/04,17:20,0.318,0.196,0.320,0.309,0.297,0.157,0.097,��쓌,1.6,��
2018/06/04,17:30,0.318,0.197,0.323,0.310,0.303,0.159,0.097,��쐼,2.1,��
2018/06/04,17:40,0.315,0.197,0.321,0.307,0.304,0.159,0.096,��,2.2,��
2018/06/04,17:50,0.314,0.196,0.322,0.310,0.300,0.159,0.097,��,1.5,��
2018/06/04,18:00,0.314,0.197,0.322,0.309,0.299,0.160,0.097,-,CALM,��
2018/06/04,18:10,0.318,0.196,0.320,0.310,0.300,0.158,0.097,-,CALM,��
2018/06/04,18:20,0.317,0.197,0.323,0.308,0.302,0.159,0.098,-,CALM,��
2018/06/04,18:30,0.314,0.197,0.322,0.309,0.300,0.158,0.097,-,CALM,��
2018/06/04,18:40,0.318,0.197,0.322,0.309,0.304,0.159,0.097,-,CALM,��
2018/06/04,18:50,0.317,0.197,0.321,0.307,0.302,0.158,0.096,-,CALM,��
2018/06/04,19:00,0.316,0.197,0.322,0.312,0.302,0.159,0.098,-,CALM,��
2018/06/04,19:10,0.319,0.196,0.324,0.307,0.303,0.158,0.096,-,CALM,��
2018/06/04,19:20,0.316,0.198,0.320,0.311,0.300,0.158,0.097,���쐼,0.6,��
2018/06/04,19:30,0.319,0.196,0.323,0.308,0.302,0.158,0.096,-,CALM,��
2018/06/04,19:40,0.317,0.197,0.321,0.310,0.301,0.158,0.097,��쐼,1.1,��
2018/06/04,19:50,0.318,0.196,0.324,0.309,0.303,0.159,0.096,-,CALM,��
2018/06/04,20:00,0.317,0.197,0.321,0.311,0.299,0.158,0.097,-,CALM,��
2018/06/04,20:10,0.317,0.197,0.323,0.309,0.301,0.158,0.097,-,CALM,��
2018/06/04,20:20,0.318,0.196,0.321,0.311,0.300,0.159,0.097,-,CALM,��
2018/06/04,20:30,0.317,0.196,0.323,0.309,0.302,0.158,0.097,-,CALM,��
2018/06/04,20:40,0.318,0.197,0.321,0.311,0.298,0.159,0.098,-,CALM,��
2018/06/04,20:50,0.316,0.197,0.323,0.309,0.301,0.159,0.097,-,CALM,��
2018/06/04,21:00,0.319,0.196,0.321,0.310,0.299,0.159,0.097,���쓌,1.0,��
2018/06/04,21:10,0.316,0.197,0.323,0.309,0.303,0.160,0.097,�쓌,1.2,��
2018/06/04,21:20,0.319,0.197,0.321,0.312,0.300,0.158,0.098,�쓌,0.8,��
2018/06/04,21:30,0.317,0.197,0.322,0.308,0.303,0.158,0.097,�쓌,0.7,��
2018/06/04,21:40,0.318,0.196,0.320,0.310,0.300,0.159,0.097,�쓌,0.8,��
2018/06/04,21:50,0.316,0.197,0.324,0.310,0.302,0.159,0.098,-,CALM,��
2018/06/04,22:00,0.318,0.197,0.321,0.310,0.298,0.159,0.098,-,CALM,��
2018/06/04,22:10,0.316,0.197,0.323,0.310,0.301,0.159,0.098,-,CALM,��
2018/06/04,22:20,0.320,0.197,0.321,0.311,0.300,0.159,0.098,��쓌,0.6,��
2018/06/04,22:30,0.317,0.197,0.323,0.310,0.301,0.159,0.097,-,CALM,��
2018/06/04,22:40,0.319,0.198,0.322,0.311,0.302,0.159,0.097,�쐼,0.9,��
2018/06/04,22:50,0.316,0.197,0.323,0.307,0.302,0.159,0.097,�쐼,1.2,��
2018/06/04,23:00,0.319,0.199,0.323,0.311,0.300,0.158,0.098,��쐼,2.4,��
2018/06/04,23:10,0.317,0.197,0.323,0.308,0.302,0.159,0.097,��쐼,2.5,��
2018/06/04,23:20,0.319,0.197,0.323,0.311,0.300,0.158,0.097,��쐼,2.5,��
2018/06/04,23:30,0.316,0.198,0.323,0.308,0.303,0.159,0.098,��쐼,2.6,��
2018/06/04,23:40,0.319,0.198,0.323,0.311,0.300,0.158,0.097,��,2.6,��
2018/06/04,23:50,0.316,0.198,0.322,0.309,0.301,0.159,0.097,��,3.1,��
